Regional Weather Roundup
Issued by NWS

Home | Current Version | Previous Version | Graphics & Text | Print | Product List | Glossary On
Versions: 1 2 3 4 5 6 7 8 9 10 11 12 13 14 15 16 17 18 19 20 21 22 23 24 25 26 27 28 29 30 31 32 33 34 35 36 37 38 39 40 41 42 43 44 45 46 47 48 49 50
732
ASUS43 KBIS 281810
RWRND

NORTH DAKOTA REGIONAL WEATHER ROUNDUP
NATIONAL WEATHER SERVICE BISMARCK ND
100 PM CDT THU JUL 28 2016

NOTE: "FAIR" INDICATES FEW OR NO CLOUDS BELOW 12,000 FEET WITH NO
SIGNIFICANT WEATHER AND/OR OBSTRUCTIONS TO VISIBILITY.


NDZ001>003-009>011-017-281900-
NORTHWEST NORTH DAKOTA

CITY           SKY/WX    TMP DP  RH WIND       PRES   REMARKS
WILLISTON      MOSUNNY   76  53  44 NE10      30.17S
6HR MIN TEMP:  60; 6HR MAX TEMP:  76;

MINOT          PTSUNNY   74  52  46 N9        30.16F
$$

NDZ018>021-031>035-040>046-281900-
SOUTHWEST NORTH DAKOTA

CITY           SKY/WX    TMP DP  RH WIND       PRES   REMARKS
BISMARCK       CLOUDY    71  56  58 E7        30.15S
6HR MIN TEMP:  63; 6HR MAX TEMP:  72;

DICKINSON      CLOUDY    62  59  90 E12       30.16S
GARRISON         N/A     67  56  67 NE5       30.17R
6HR MIN TEMP:  61; 6HR MAX TEMP:  68;

HETTINGER ARPT CLOUDY    72  59  63 SE8       30.15F
$$

NDZ004>008-012>016-024-026-027-054-281900-
NORTHEAST NORTH DAKOTA

CITY           SKY/WX    TMP DP  RH WIND       PRES   REMARKS
GRAND FORKS    MOSUNNY   74  57  55 N10       30.11F
DEVILS LAKE    MOSUNNY   70  58  65 VRB5      30.16F
$$

NDZ022-023-025-028>030-036>039-047>053-281900-
SOUTHEAST NORTH DAKOTA

CITY           SKY/WX    TMP DP  RH WIND       PRES   REMARKS
FARGO          SUNNY     77  61  57 N5        30.08F
6HR MIN TEMP:  63; 6HR MAX TEMP:  77; 6HR PCP: TRACE;

JAMESTOWN      CLOUDY    71  63  75 VRB6      30.12S
$$





USA.gov is the U.S. government's official web portal to all federal, state and local government web resources and services.